[Iaude] MPEC N75: 2024 NM1 [a=1.29,e=0.57,i=7.0,H=26.5]
    mpec at cfa.harvard.edu 
    mpec at cfa.harvard.edu
       
    Sat Jul  6 09:33:01 EDT 2024
    
    
  
M.P.E.C. 2024-N75                                  Issued 2024 July 6, 13:31 UT
     The Minor Planet Electronic Circulars contain information on unusual
         minor planets, routine data on comets and natural satellites,
         and occasional editorial announcements.  They are published
    on behalf of Division F of the International Astronomical Union by the
          Minor Planet Center, Smithsonian Astrophysical Observatory,
                          Cambridge, MA 02138, U.S.A.
			  
             Prepared using the Tamkin Foundation Computer Network
                              MPC at CFA.HARVARD.EDU
            URL https://www.minorplanetcenter.net/    ISSN 1523-6714
                                    2024 NM1                                    
Observations:
     K24N01M  C2024 06 29.43387619 30 03.029-28 43 51.26         21.63GVEN075F51
     K24N01M  C2024 06 29.43957719 30 02.384-28 43 40.90         21.70GVEN075F51
     K24N01M  C2024 06 29.44473619 30 01.795-28 43 31.69         21.21GVEN075F51
     K24N01M  C2024 06 29.44992919 30 01.160-28 43 22.71         21.20GVEN075F51
     K24N01M* C2024 07 05.42499818 36 25.349+02 06 38.63         16.71oVEN075T05
     K24N01M  C2024 07 05.45929718 33 36.410+03 42 00.40         16.57oVEN075T05
     K24N01M  C2024 07 05.46209218 33 22.106+03 50 05.35         16.41oVEN075T05
     K24N01M  C2024 07 05.46837018 32 49.586+04 08 26.74         16.36oVEN075T05
     K24N01M KC2024 07 05.96705717 02 18.81 +45 46 10.8          16.6 GVEN075L01
     K24N01M KC2024 07 05.96744417 02 09.26 +45 48 43.3          16.9 GVEN075L01
     K24N01M KC2024 07 05.96783017 01 59.77 +45 51 15.1          16.9 GVEN075L01
     K24N01M KC2024 07 05.96821517 01 50.23 +45 53 47.2          16.7 GVEN075L01
     K24N01M KC2024 07 05.96860017 01 40.70 +45 56 19.1          16.9 GVEN075L01
     K24N01M KC2024 07 05.96903717 01 29.82 +45 59 11.3          16.7 GVEN075L01
     K24N01M KC2024 07 05.99379 16 50 44.13 +48 41 26.7          18.4 GXEN075K83
     K24N01M KB2024 07 06.00600916 44 57.70 +49 57 54.8                XEN075595
     K24N01M KC2024 07 06.01787 16 39 04.65 +51 13 58.3          18.7 GXEN075K83
     K24N01M KB2024 07 06.02049316 37 44.81 +51 28 42.0          17.3 GXEN075595
     K24N01M KB2024 07 06.04341816 25 24.71 +53 47 51.8                XEN075595
     K24N01M 0C2024 07 06.24694813 40 46.070+67 54 52.41         19.34GVEN075T12
     K24N01M 0C2024 07 06.24855813 39 03.544+67 57 06.27         19.69GVEN075T12
     K24N01M 0C2024 07 06.25013413 37 23.209+67 59 12.89         19.90GVEN075T12
Observer details:
595 Farra d'Isonzo.  Observer E. Pettarin.  0.40-m f/3.3 reflector + CMO.
F51 Pan-STARRS 1, Haleakala.  Observers J. Herman, T. Lowe, P. Minguez, A.
    Schultz, I. Smith.  Measurers K. Chambers, T. de Boer, J. Fairlamb, H.
    Gao, M. Huber, C.-C. Lin, E. Magnier, Y. Ramanjooloo, R. Wainscoat, R.
    Weryk.  1.8-m Ritchey-Chretien + CCD.
K83 Beppe Forti Astronomical Observatory, Montelupo.  Observers M. Tombelli,
    M. Iozzi, F. Cheli, M. Lombardo, T. Bitossi, L. Bartolini, S. Bartolini,
    Y. Mazzanti, G. Interrante.  Measurers M. Tombelli, F. Bernardi, F. Cheli.
    0.40-m f/8 Ritchey-Chretien + CCD.
L01 Visnjan Observatory, Tican.  Observer K. Korlevic.  1.0-m f/2.9 reflector
    + CCD.
T05 ATLAS-HKO, Haleakala.  Observers L. Denneau, R. Siverd, J. Tonry, H.
    Weiland.  Measurers L. Denneau, N. Erasmus, A. Fitzsimmons, J. Robinson,
    R. Siverd, J. Tonry, H. Weiland.  0.5-m Reflector + CCD.
T12 University of Hawaii 88-inch telescope, Maunakea.  Observer D. J. Tholen.
    2.24-m f/10.1 reflector + 2112 x 2112 pixels STA1600 10k CCD.
Orbital elements:
2024 NM1                                                 Earth MOID = 0.0044 AU
Epoch 2024 Mar. 31.0 TT = JDT 2460400.5                 Veres                   
M 257.23411              (2000.0)            P               Q                  
n   0.66988288     Peri.  106.15429     +0.87434479     -0.47038239             
a   1.2936103      Node   282.03712     +0.38540685     +0.82255722             
e   0.5678536      Incl.    7.01370     +0.29492836     +0.31959355             
P   1.47           H   26.56          G   0.15           U   6                  
Residuals in seconds of arc
240629 F51  0.2-  0.1-    240705 L01  0.6-  0.4+    240706 K83  0.4+  0.2-
240629 F51  0.0   0.1+    240705 L01  0.6-  0.3+    240706 595  0.4-  0.4-
240629 F51  0.3+  0.1+    240705 L01  0.1-  0.2-    240706 595  0.4+  0.6-
240629 F51  0.1-  0.3-    240705 L01  0.2-  0.2+    240706 T12  0.0   0.0
240705 T05 (0.6+  1.3-)   240705 L01  0.0   0.3+    240706 T12  0.0   0.0
240705 T05  0.2-  0.2+    240705 L01  0.2-  0.3+    240706 T12  0.0   0.0
240705 T05  0.1+  0.1-    240705 K83  0.4+  0.5-
240705 T05  0.0   0.2+    240706 595  0.7+  0.4+
Ephemeris:
2024 NM1                 a,e,i = 1.29, 0.57, 7                   q = 0.5590
Date    TT    R. A. (2000) Decl.     Delta      r    Elong.  Phase     V
2024 06 06    19 27 37.3 -30 58 07   0.3286  1.2990   145.5    26.2    25.9
...
2024 06 21    19 32 37.5 -30 32 16   0.1581  1.1643   158.0    19.1    23.9
...
2024 06 29    19 30 25.3 -28 54 58   0.07298 1.0875   165.8    13.3    21.8
...
2024 07 05    18 56 47.7 -10 27 07   0.01135 1.0278   167.7    12.2    17.6
2024 07 06    16 49 50.4 +49 17 37   0.0045611.0177   102.3    77.4    17.6
2024 07 07    08 44 58.4 +52 30 57   0.01128 1.0075    35.5   144.2    24.3
...
2024 07 13    07 44 57.8 +35 08 18   0.07283 0.9459    13.7   165.2    34.0
...
2024 07 21    07 40 32.5 +33 04 43   0.1586  0.8626    13.5   164.1    34.9
...
2024 08 05    07 43 50.9 +30 45 14   0.3412  0.7106    22.3   147.2    31.4
M. P. C. Staff               (C) Copyright 2024 MPC           M.P.E.C. 2024-N75
    
    
More information about the Iaude
mailing list